Time,TemperatureF,DewpointF,PressureIn,WindDirection,WindDirectionDegrees,WindSpeedMPH,WindSpeedGustMPH,Humidity,HourlyPrecipIn,Conditions,Clouds,dailyrainin,SolarRadiationWatts/m^2,SoftwareType,DateUTC
2013-03-03 00:21:00,17.0,15.0,-100.00,NNE,20,3.0,5.0,91,0.00,,,0.04,0.000000,,2013-03-03 07:21:00,
2013-03-03 00:31:00,17.0,15.0,-100.00,NNE,20,3.0,5.0,91,0.00,,,0.04,0.000000,,2013-03-03 07:31:00,
2013-03-03 00:42:00,17.0,15.0,-100.00,NNE,20,3.0,5.0,91,0.00,,,0.04,0.000000,,2013-03-03 07:42:00,
2013-03-03 00:51:00,17.0,15.0,-100.00,NNE,20,3.0,5.0,91,0.00,,,0.04,0.000000,,2013-03-03 07:51:00,
2013-03-03 01:21:00,18.0,15.0,-100.00,NE,44,3.0,5.0,89,0.00,,,0.04,0.000000,,2013-03-03 08:21:00,
2013-03-03 01:31:00,18.0,15.0,-100.00,NE,44,3.0,5.0,89,0.00,,,0.04,0.000000,,2013-03-03 08:31:00,
2013-03-03 01:41:00,18.0,15.0,-100.00,NE,44,3.0,5.0,89,0.00,,,0.04,0.000000,,2013-03-03 08:41:00,
2013-03-03 01:53:00,18.0,15.0,-100.00,NE,44,3.0,5.0,89,0.00,,,0.04,0.000000,,2013-03-03 08:53:00,
2013-03-03 02:21:00,18.0,15.0,-100.00,West,271,4.0,8.0,86,0.00,,,0.04,0.000000,,2013-03-03 09:21:00,
2013-03-03 02:32:00,18.0,15.0,-100.00,West,271,4.0,8.0,86,0.00,,,0.04,0.000000,,2013-03-03 09:32:00,
2013-03-03 02:41:00,18.0,15.0,-100.00,West,271,4.0,8.0,86,0.00,,,0.04,0.000000,,2013-03-03 09:41:00,
2013-03-03 02:51:00,18.0,15.0,-100.00,West,271,4.0,8.0,86,0.00,,,0.04,0.000000,,2013-03-03 09:51:00,
2013-03-03 03:21:00,12.0,9.0,-100.00,NNE,29,2.0,6.0,87,0.00,,,0.04,0.000000,,2013-03-03 10:21:00,
2013-03-03 03:32:00,12.0,9.0,-100.00,NNE,29,2.0,6.0,87,0.00,,,0.04,0.000000,,2013-03-03 10:32:00,
2013-03-03 03:42:00,12.0,9.0,-100.00,NNE,29,2.0,6.0,87,0.00,,,0.04,0.000000,,2013-03-03 10:42:00,
2013-03-03 03:52:00,12.0,9.0,-100.00,NNE,29,2.0,6.0,87,0.00,,,0.04,0.000000,,2013-03-03 10:52:00,
2013-03-03 04:21:00,10.0,7.0,-100.00,NE,36,2.0,6.0,87,0.00,,,0.04,0.000000,,2013-03-03 11:21:00,
2013-03-03 04:32:00,10.0,7.0,-100.00,NE,36,2.0,6.0,87,0.00,,,0.04,0.000000,,2013-03-03 11:32:00,
2013-03-03 04:42:00,10.0,7.0,-100.00,NE,36,2.0,6.0,87,0.00,,,0.04,0.000000,,2013-03-03 11:42:00,
2013-03-03 04:52:00,10.0,7.0,-100.00,NE,36,2.0,6.0,87,0.00,,,0.04,0.000000,,2013-03-03 11:52:00,
2013-03-03 05:21:00,8.0,5.0,-100.00,NNW,333,2.0,4.0,86,0.00,,,0.04,0.000000,,2013-03-03 12:21:00,
2013-03-03 05:32:00,8.0,5.0,-100.00,NNW,333,2.0,4.0,86,0.00,,,0.04,0.000000,,2013-03-03 12:32:00,
2013-03-03 05:43:00,8.0,5.0,-100.00,NNW,333,2.0,4.0,86,0.00,,,0.04,0.000000,,2013-03-03 12:43:00,
2013-03-03 05:52:00,8.0,5.0,-100.00,NNW,333,2.0,4.0,86,0.00,,,0.04,0.000000,,2013-03-03 12:52:00,
2013-03-03 06:22:00,6.0,2.0,-100.00,NE,54,2.0,3.0,84,0.00,,,0.04,0.000000,,2013-03-03 13:22:00,
2013-03-03 06:32:00,6.0,2.0,-100.00,NE,54,2.0,3.0,84,0.00,,,0.04,0.000000,,2013-03-03 13:32:00,
2013-03-03 06:42:00,6.0,2.0,-100.00,NE,54,2.0,3.0,84,0.00,,,0.04,0.000000,,2013-03-03 13:42:00,
2013-03-03 06:52:00,6.0,2.0,-100.00,NE,54,2.0,3.0,84,0.00,,,0.04,0.000000,,2013-03-03 13:52:00,
2013-03-03 07:21:00,7.0,4.0,-100.00,NE,55,1.0,2.0,86,0.00,,,0.04,5.000000,,2013-03-03 14:21:00,
2013-03-03 07:32:00,7.0,4.0,-100.00,NE,55,1.0,2.0,86,0.00,,,0.04,5.000000,,2013-03-03 14:32:00,
2013-03-03 07:42:00,7.0,4.0,-100.00,NE,55,1.0,2.0,86,0.00,,,0.04,5.000000,,2013-03-03 14:42:00,
2013-03-03 07:52:00,7.0,4.0,-100.00,NE,55,1.0,2.0,86,0.00,,,0.04,5.000000,,2013-03-03 14:52:00,
2013-03-03 08:22:00,15.0,12.0,-100.00,NE,36,1.0,3.0,86,0.00,,,0.04,65.000000,,2013-03-03 15:22:00,
2013-03-03 08:32:00,15.0,12.0,-100.00,NE,36,1.0,3.0,86,0.00,,,0.04,65.000000,,2013-03-03 15:32:00,
2013-03-03 08:42:00,15.0,12.0,-100.00,NE,36,1.0,3.0,86,0.00,,,0.04,65.000000,,2013-03-03 15:42:00,
2013-03-03 08:52:00,15.0,12.0,-100.00,NE,36,1.0,3.0,86,0.00,,,0.04,65.000000,,2013-03-03 15:52:00,
2013-03-03 09:22:00,31.0,24.0,-100.00,SSE,149,2.0,5.0,74,0.00,,,0.04,195.000000,,2013-03-03 16:22:00,
2013-03-03 09:32:00,31.0,24.0,-100.00,SSE,149,2.0,5.0,74,0.00,,,0.04,195.000000,,2013-03-03 16:32:00,
2013-03-03 09:42:00,31.0,24.0,-100.00,SSE,149,2.0,5.0,74,0.00,,,0.04,195.000000,,2013-03-03 16:42:00,
2013-03-03 09:52:00,31.0,24.0,-100.00,SSE,149,2.0,5.0,74,0.00,,,0.04,195.000000,,2013-03-03 16:52:00,
2013-03-03 10:22:00,40.0,19.0,-100.00,South,170,7.0,12.0,42,0.00,,,0.04,504.000000,,2013-03-03 17:22:00,
2013-03-03 10:32:00,40.0,19.0,-100.00,South,170,7.0,12.0,42,0.00,,,0.04,504.000000,,2013-03-03 17:32:00,
2013-03-03 10:42:00,40.0,19.0,-100.00,South,170,7.0,12.0,42,0.00,,,0.04,504.000000,,2013-03-03 17:42:00,
2013-03-03 10:52:00,40.0,19.0,-100.00,South,170,7.0,12.0,42,0.00,,,0.04,504.000000,,2013-03-03 17:52:00,
2013-03-03 11:21:00,41.0,19.0,-100.00,South,183,8.0,17.0,40,0.00,,,0.00,593.000000,,2013-03-03 18:21:00,
2013-03-03 11:32:00,41.0,19.0,-100.00,South,183,8.0,17.0,40,0.00,,,0.00,593.000000,,2013-03-03 18:32:00,
2013-03-03 11:42:00,41.0,19.0,-100.00,South,183,8.0,17.0,40,0.00,,,0.00,593.000000,,2013-03-03 18:42:00,
2013-03-03 11:52:00,41.0,19.0,-100.00,South,183,8.0,17.0,40,0.00,,,0.00,593.000000,,2013-03-03 18:52:00,
2013-03-03 12:22:00,43.0,19.0,-100.00,South,175,10.0,19.0,37,0.00,,,0.00,684.000000,,2013-03-03 19:22:00,
2013-03-03 12:32:00,43.0,19.0,-100.00,South,175,10.0,19.0,37,0.00,,,0.00,684.000000,,2013-03-03 19:32:00,
2013-03-03 12:42:00,43.0,19.0,-100.00,South,175,10.0,19.0,37,0.00,,,0.00,684.000000,,2013-03-03 19:42:00,
2013-03-03 12:52:00,43.0,19.0,-100.00,South,175,10.0,19.0,37,0.00,,,0.00,684.000000,,2013-03-03 19:52:00,
2013-03-03 13:21:00,40.0,18.0,-100.00,South,174,13.0,23.0,40,0.00,,,0.00,535.000000,,2013-03-03 20:21:00,
2013-03-03 13:32:00,40.0,18.0,-100.00,South,174,13.0,23.0,40,0.00,,,0.00,535.000000,,2013-03-03 20:32:00,
2013-03-03 13:42:00,40.0,18.0,-100.00,South,174,13.0,23.0,40,0.00,,,0.00,535.000000,,2013-03-03 20:42:00,
2013-03-03 13:52:00,40.0,18.0,-100.00,South,174,13.0,23.0,40,0.00,,,0.00,535.000000,,2013-03-03 20:52:00,
2013-03-03 14:22:00,41.0,19.0,-100.00,SSW,205,12.0,26.0,40,0.00,,,0.00,289.000000,,2013-03-03 21:22:00,
2013-03-03 14:32:00,41.0,19.0,-100.00,SSW,205,12.0,26.0,40,0.00,,,0.00,289.000000,,2013-03-03 21:32:00,
2013-03-03 14:42:00,41.0,19.0,-100.00,SSW,205,12.0,26.0,40,0.00,,,0.00,289.000000,,2013-03-03 21:42:00,
2013-03-03 14:52:00,41.0,19.0,-100.00,SSW,205,12.0,26.0,40,0.00,,,0.00,289.000000,,2013-03-03 21:52:00,
2013-03-03 15:22:00,39.0,20.0,-100.00,WSW,255,15.0,29.0,47,0.00,,,0.00,330.000000,,2013-03-03 22:22:00,
2013-03-03 15:32:00,39.0,20.0,-100.00,WSW,255,15.0,29.0,47,0.00,,,0.00,330.000000,,2013-03-03 22:32:00,
2013-03-03 15:42:00,39.0,20.0,-100.00,WSW,255,15.0,29.0,47,0.00,,,0.00,330.000000,,2013-03-03 22:42:00,
2013-03-03 15:52:00,39.0,20.0,-100.00,WSW,255,15.0,29.0,47,0.00,,,0.00,330.000000,,2013-03-03 22:52:00,
2013-03-03 16:21:00,38.0,20.0,-100.00,SW,236,13.0,28.0,48,0.00,,,0.00,292.000000,,2013-03-03 23:21:00,
2013-03-03 16:32:00,38.0,20.0,-100.00,SW,236,13.0,28.0,48,0.00,,,0.00,292.000000,,2013-03-03 23:32:00,
2013-03-03 16:42:00,38.0,20.0,-100.00,SW,236,13.0,28.0,48,0.00,,,0.00,292.000000,,2013-03-03 23:42:00,
2013-03-03 16:52:00,38.0,20.0,-100.00,SW,236,13.0,28.0,48,0.00,,,0.00,292.000000,,2013-03-03 23:52:00,
2013-03-03 17:21:00,34.0,26.0,-100.00,SW,218,7.0,20.0,73,0.00,,,0.00,130.000000,,2013-03-04 00:21:00,
2013-03-03 17:32:00,34.0,26.0,-100.00,SW,218,7.0,20.0,73,0.00,,,0.00,130.000000,,2013-03-04 00:32:00,
2013-03-03 17:42:00,34.0,26.0,-100.00,SW,218,7.0,20.0,73,0.00,,,0.00,130.000000,,2013-03-04 00:42:00,
2013-03-03 17:52:00,34.0,26.0,-100.00,SW,218,7.0,20.0,73,0.00,,,0.00,130.000000,,2013-03-04 00:52:00,
2013-03-03 18:21:00,31.0,27.0,-100.00,South,191,6.0,10.0,86,0.00,,,0.00,22.000000,,2013-03-04 01:21:00,
2013-03-03 18:32:00,31.0,27.0,-100.00,South,191,6.0,10.0,86,0.00,,,0.00,22.000000,,2013-03-04 01:32:00,
2013-03-03 18:42:00,31.0,27.0,-100.00,South,191,6.0,10.0,86,0.00,,,0.00,22.000000,,2013-03-04 01:42:00,
2013-03-03 18:51:00,31.0,27.0,-100.00,South,191,6.0,10.0,86,0.00,,,0.00,22.000000,,2013-03-04 01:51:00,
2013-03-03 19:22:00,30.0,29.0,-100.00,SSE,166,7.0,12.0,95,0.00,,,0.00,0.000000,,2013-03-04 02:22:00,
2013-03-03 19:32:00,30.0,29.0,-100.00,SSE,166,7.0,12.0,95,0.00,,,0.00,0.000000,,2013-03-04 02:32:00,
2013-03-03 19:42:00,30.0,29.0,-100.00,SSE,166,7.0,12.0,95,0.00,,,0.00,0.000000,,2013-03-04 02:42:00,
2013-03-03 19:52:00,30.0,29.0,-100.00,SSE,166,7.0,12.0,95,0.00,,,0.00,0.000000,,2013-03-04 02:52:00,
2013-03-03 20:22:00,29.0,28.0,-100.00,South,175,7.0,12.0,97,0.00,,,0.00,0.000000,,2013-03-04 03:22:00,
2013-03-03 20:32:00,29.0,28.0,-100.00,South,175,7.0,12.0,97,0.00,,,0.00,0.000000,,2013-03-04 03:32:00,
2013-03-03 20:42:00,29.0,28.0,-100.00,South,175,7.0,12.0,97,0.00,,,0.00,0.000000,,2013-03-04 03:42:00,
2013-03-03 20:52:00,29.0,28.0,-100.00,South,175,7.0,12.0,97,0.00,,,0.00,0.000000,,2013-03-04 03:52:00,
2013-03-03 21:22:00,29.0,28.0,-100.00,South,172,5.0,10.0,97,0.00,,,-99.99,0.000000,,2013-03-04 04:22:00,
2013-03-03 21:32:00,29.0,28.0,-100.00,South,172,5.0,10.0,97,0.00,,,-99.99,0.000000,,2013-03-04 04:32:00,
2013-03-03 21:42:00,29.0,28.0,-100.00,South,172,5.0,10.0,97,0.00,,,-99.99,0.000000,,2013-03-04 04:42:00,
2013-03-03 21:51:00,29.0,28.0,-100.00,South,172,5.0,10.0,97,0.00,,,-99.99,0.000000,,2013-03-04 04:51:00,
2013-03-03 22:22:00,29.0,28.0,-100.00,South,175,5.0,10.0,97,0.00,,,0.00,0.000000,,2013-03-04 05:22:00,
2013-03-03 22:32:00,29.0,28.0,-100.00,South,175,5.0,10.0,97,0.00,,,0.00,0.000000,,2013-03-04 05:32:00,
2013-03-03 22:42:00,29.0,28.0,-100.00,South,175,5.0,10.0,97,0.00,,,0.00,0.000000,,2013-03-04 05:42:00,
2013-03-03 22:52:00,29.0,28.0,-100.00,South,175,5.0,10.0,97,0.00,,,0.00,0.000000,,2013-03-04 05:52:00,
2013-03-03 23:21:00,29.0,27.0,-100.00,South,183,6.0,11.0,94,0.00,,,0.00,0.000000,,2013-03-04 06:21:00,
2013-03-03 23:32:00,29.0,27.0,-100.00,South,183,6.0,11.0,94,0.00,,,0.00,0.000000,,2013-03-04 06:32:00,
2013-03-03 23:42:00,29.0,27.0,-100.00,South,183,6.0,11.0,94,0.00,,,0.00,0.000000,,2013-03-04 06:42:00,
2013-03-03 23:51:00,29.0,27.0,-100.00,South,183,6.0,11.0,94,0.00,,,0.00,0.000000,,2013-03-04 06:51:00,